Wetterdaten: aktuell Dienstag, 28.06.2022 10:10
Datum Zeit Temp. A. Feuchte A. Luftdruck Regen Wind Richtung Richtung Sonnenschein UV Solar Taupunkt Windchill Windben Empfang
28.06.2022 10:10 17,6 C 87 % 1019,8 hPa 0,0 l/m 11,3 km/h (2 Bft) SW 225 5 min 4,9 UV-I 830 W/m 15,4 C 15,5 C 22,5 km/h (4 Bft) 100,00 %
28.06.2022 10:05 17,4 C 87 % 1019,8 hPa 0,0 l/m 12,9 km/h (3 Bft) W-SW 247 5 min 4,7 UV-I 779 W/m 15,2 C 14,7 C 19,3 km/h (3 Bft) 100,00 %
28.06.2022 10:00 17,4 C 87 % 1020,0 hPa 0,0 l/m 9,7 km/h (2 Bft) W 270 5 min 4,7 UV-I 807 W/m 15,2 C 15,9 C 24,1 km/h (4 Bft) 100,00 %
28.06.2022 09:55 17,2 C 88 % 1020,0 hPa 0,0 l/m 11,3 km/h (2 Bft) W-SW 247 5 min 4,8 UV-I 367 W/m 15,2 C 15,1 C 24,1 km/h (4 Bft) 100,00 %
28.06.2022 09:50 17,1 C 88 % 1020,0 hPa 0,0 l/m 12,9 km/h (3 Bft) W-SW 247 5 min 4,5 UV-I 325 W/m 15,1 C 14,4 C 29,0 km/h (5 Bft) 100,00 %
28.06.2022 09:45 16,9 C 88 % 1019,8 hPa 0,0 l/m 11,3 km/h (2 Bft) W-SW 247 5 min 4,1 UV-I 738 W/m 14,9 C 14,7 C 22,5 km/h (4 Bft) 100,00 %
28.06.2022 09:40 16,8 C 88 % 1019,9 hPa 0,0 l/m 12,9 km/h (3 Bft) W-SW 247 5 min 3,4 UV-I 571 W/m 14,8 C 14,0 C 22,5 km/h (4 Bft) 100,00 %
28.06.2022 09:35 16,7 C 89 % 1019,9 hPa 0,0 l/m 8,0 km/h (2 Bft) SW 225 5 min 3,3 UV-I 570 W/m 14,9 C 15,9 C 19,3 km/h (3 Bft) 100,00 %
28.06.2022 09:30 16,6 C 88 % 1019,9 hPa 0,0 l/m 16,1 km/h (3 Bft) W-SW 247 5 min 3,2 UV-I 519 W/m 14,6 C 12,8 C 24,1 km/h (4 Bft) 100,00 %
28.06.2022 09:25 16,6 C 88 % 1019,7 hPa 0,0 l/m 14,5 km/h (3 Bft) W-SW 247 5 min 3,2 UV-I 566 W/m 14,6 C 13,3 C 25,7 km/h (4 Bft) 100,00 %
28.06.2022 09:20 16,4 C 88 % 1019,6 hPa 0,0 l/m 16,1 km/h (3 Bft) W-SW 247 5 min 3,1 UV-I 561 W/m 14,4 C 12,6 C 25,7 km/h (4 Bft) 100,00 %
28.06.2022 09:15 16,4 C 88 % 1019,7 hPa 0,0 l/m 19,3 km/h (3 Bft) W-SW 247 5 min 3,4 UV-I 647 W/m 14,4 C 11,7 C 30,6 km/h (5 Bft) 100,00 %
28.06.2022 09:10 16,4 C 90 % 1019,6 hPa 0,0 l/m 14,5 km/h (3 Bft) SW 225 5 min 3,3 UV-I 680 W/m 14,8 C 13,0 C 24,1 km/h (4 Bft) 100,00 %
28.06.2022 09:05 16,2 C 90 % 1019,5 hPa 0,0 l/m 19,3 km/h (3 Bft) W-SW 247 5 min 3,2 UV-I 670 W/m 14,6 C 11,5 C 32,2 km/h (5 Bft) 100,00 %
28.06.2022 09:00 16,2 C 90 % 1019,5 hPa 0,0 l/m 17,7 km/h (3 Bft) W-SW 247 5 min 3,1 UV-I 643 W/m 14,6 C 11,9 C 27,4 km/h (4 Bft) 100,00 %
28.06.2022 08:55 16,1 C 90 % 1019,5 hPa 0,0 l/m 16,1 km/h (3 Bft) W-SW 247 5 min 3,0 UV-I 710 W/m 14,5 C 12,2 C 29,0 km/h (5 Bft) 100,00 %
28.06.2022 08:50 15,9 C 90 % 1019,2 hPa 0,0 l/m 20,9 km/h (4 Bft) SW 225 5 min 2,8 UV-I 601 W/m 14,3 C 10,7 C 38,6 km/h (5 Bft) 100,00 %
28.06.2022 08:45 15,8 C 91 % 1019,2 hPa 0,0 l/m 17,7 km/h (3 Bft) W-SW 247 5 min 2,6 UV-I 603 W/m 14,3 C 11,4 C 30,6 km/h (5 Bft) 100,00 %
28.06.2022 08:40 15,7 C 91 % 1019,0 hPa 0,0 l/m 22,5 km/h (4 Bft) W-SW 247 5 min 2,4 UV-I 520 W/m 14,2 C 10,1 C 40,2 km/h (6 Bft) 100,00 %
28.06.2022 08:35 15,6 C 92 % 1019,1 hPa 0,0 l/m 20,9 km/h (4 Bft) W-SW 247 5 min 2,3 UV-I 506 W/m 14,3 C 10,3 C 35,4 km/h (5 Bft) 100,00 %
28.06.2022 08:30 15,5 C 92 % 1018,9 hPa 0,0 l/m 22,5 km/h (4 Bft) W-SW 247 5 min 2,2 UV-I 524 W/m 14,2 C 9,8 C 37,0 km/h (5 Bft) 100,00 %
28.06.2022 08:25 15,4 C 93 % 1018,8 hPa 0,0 l/m 22,5 km/h (4 Bft) W-SW 247 5 min 2,1 UV-I 541 W/m 14,3 C 9,7 C 45,1 km/h (6 Bft) 100,00 %
28.06.2022 08:20 15,3 C 93 % 1018,7 hPa 0,0 l/m 22,5 km/h (4 Bft) W-SW 247 5 min 2,0 UV-I 487 W/m 14,2 C 9,5 C 37,0 km/h (5 Bft) 100,00 %
28.06.2022 08:15 15,4 C 93 % 1018,7 hPa 0,0 l/m 19,3 km/h (3 Bft) W-SW 247 5 min 1,9 UV-I 455 W/m 14,3 C 10,4 C 32,2 km/h (5 Bft) 100,00 %
28.06.2022 08:10 15,4 C 93 % 1018,5 hPa 0,0 l/m 20,9 km/h (4 Bft) W-SW 247 5 min 1,8 UV-I 506 W/m 14,3 C 10,0 C 43,5 km/h (6 Bft) 100,00 %
28.06.2022 08:05 15,4 C 93 % 1018,7 hPa 0,0 l/m 20,9 km/h (4 Bft) W 270 5 min 1,7 UV-I 483 W/m 14,3 C 10,0 C 30,6 km/h (5 Bft) 100,00 %
28.06.2022 08:00 15,4 C 93 % 1018,7 hPa 0,0 l/m 17,7 km/h (3 Bft) W-SW 247 5 min 1,7 UV-I 510 W/m 14,3 C 10,9 C 41,8 km/h (6 Bft) 100,00 %
28.06.2022 07:55 15,3 C 93 % 1018,7 hPa 0,0 l/m 19,3 km/h (3 Bft) W 270 5 min 1,3 UV-I 323 W/m 14,2 C 10,3 C 29,0 km/h (5 Bft) 100,00 %
28.06.2022 07:50 15,3 C 93 % 1018,6 hPa 0,0 l/m 16,1 km/h (3 Bft) W-SW 247 5 min 1,0 UV-I 287 W/m 14,2 C 11,2 C 37,0 km/h (5 Bft) 100,00 %
28.06.2022 07:45 15,3 C 94 % 1018,6 hPa 0,0 l/m 22,5 km/h (4 Bft) W-SW 247 5 min 1,3 UV-I 497 W/m 14,3 C 9,5 C 41,8 km/h (6 Bft) 100,00 %
28.06.2022 07:40 15,2 C 94 % 1018,4 hPa 0,0 l/m 22,5 km/h (4 Bft) W 270 5 min 1,3 UV-I 418 W/m 14,2 C 9,4 C 41,8 km/h (6 Bft) 100,00 %
28.06.2022 07:35 15,2 C 94 % 1018,3 hPa 0,0 l/m 16,1 km/h (3 Bft) W-SW 247 5 min 0,9 UV-I 214 W/m 14,2 C 11,1 C 27,4 km/h (4 Bft) 100,00 %
28.06.2022 07:30 15,1 C 94 % 1018,2 hPa 0,0 l/m 17,7 km/h (3 Bft) W-SW 247 5 min 0,8 UV-I 267 W/m 14,1 C 10,5 C 35,4 km/h (5 Bft) 100,00 %
28.06.2022 07:25 15,1 C 95 % 1018,0 hPa 0,0 l/m 22,5 km/h (4 Bft) W-SW 247 5 min 1,0 UV-I 318 W/m 14,3 C 9,3 C 35,4 km/h (5 Bft) 100,00 %
28.06.2022 07:20 15,1 C 95 % 1018,0 hPa 0,0 l/m 24,1 km/h (4 Bft) W-SW 247 5 min 0,9 UV-I 304 W/m 14,3 C 8,9 C 38,6 km/h (5 Bft) 100,00 %
28.06.2022 07:15 15,0 C 95 % 1017,9 hPa 0,0 l/m 24,1 km/h (4 Bft) W-SW 247 5 min 0,9 UV-I 406 W/m 14,2 C 8,8 C 37,0 km/h (5 Bft) 100,00 %
28.06.2022 07:10 14,9 C 96 % 1017,8 hPa 0,0 l/m 22,5 km/h (4 Bft) W-SW 247 5 min 0,8 UV-I 172 W/m 14,3 C 9,0 C 41,8 km/h (6 Bft) 100,00 %
28.06.2022 07:05 14,9 C 96 % 1017,7 hPa 0,0 l/m 22,5 km/h (4 Bft) W 270 5 min 0,6 UV-I 186 W/m 14,3 C 9,0 C 40,2 km/h (6 Bft) 100,00 %
28.06.2022 07:00 14,8 C 96 % 1017,8 hPa 0,0 l/m 24,1 km/h (4 Bft) W-SW 247 5 min 0,5 UV-I 185 W/m 14,2 C 8,5 C 41,8 km/h (6 Bft) 100,00 %
28.06.2022 06:55 14,8 C 96 % 1017,8 hPa 0,0 l/m 22,5 km/h (4 Bft) W-SW 247 0 min 0,0 UV-I 135 W/m 14,2 C 8,9 C 35,4 km/h (5 Bft) 100,00 %
28.06.2022 06:50 14,8 C 96 % 1017,7 hPa 0,0 l/m 22,5 km/h (4 Bft) W-SW 247 0 min 0,0 UV-I 84 W/m 14,2 C 8,9 C 37,0 km/h (5 Bft) 100,00 %
28.06.2022 06:45 14,9 C 96 % 1017,5 hPa 0,0 l/m 22,5 km/h (4 Bft) W-SW 247 0 min 0,0 UV-I 70 W/m 14,3 C 9,0 C 40,2 km/h (6 Bft) 100,00 %
28.06.2022 06:40 14,9 C 96 % 1017,5 hPa 0,0 l/m 22,5 km/h (4 Bft) W-SW 247 0 min 0,0 UV-I 60 W/m 14,3 C 9,0 C 35,4 km/h (5 Bft) 100,00 %
28.06.2022 06:35 14,9 C 96 % 1017,3 hPa 0,0 l/m 24,1 km/h (4 Bft) W-SW 247 0 min 0,0 UV-I 51 W/m 14,3 C 8,7 C 38,6 km/h (5 Bft) 100,00 %
28.06.2022 06:30 14,9 C 96 % 1017,4 hPa 0,0 l/m 24,1 km/h (4 Bft) W-SW 247 0 min 0,0 UV-I 51 W/m 14,3 C 8,7 C 41,8 km/h (6 Bft) 100,00 %
28.06.2022 06:25 14,9 C 96 % 1017,3 hPa 0,0 l/m 22,5 km/h (4 Bft) W-SW 247 0 min 0,0 UV-I 46 W/m 14,3 C 9,0 C 35,4 km/h (5 Bft) 100,00 %
28.06.2022 06:20 15,0 C 95 % 1017,2 hPa 0,0 l/m 19,3 km/h (3 Bft) W-SW 247 0 min 0,0 UV-I 44 W/m 14,2 C 9,9 C 40,2 km/h (6 Bft) 100,00 %
28.06.2022 06:15 15,1 C 96 % 1017,2 hPa 0,0 l/m 25,7 km/h (4 Bft) W-SW 247 0 min 0,0 UV-I 53 W/m 14,5 C 8,6 C 41,8 km/h (6 Bft) 100,00 %
28.06.2022 06:10 15,1 C 96 % 1017,1 hPa 0,0 l/m 24,1 km/h (4 Bft) W-SW 247 0 min 0,0 UV-I 60 W/m 14,5 C 8,9 C 40,2 km/h (6 Bft) 100,00 %
28.06.2022 06:05 15,1 C 96 % 1017,0 hPa 0,0 l/m 25,7 km/h (4 Bft) W-SW 247 0 min 0,0 UV-I 58 W/m 14,5 C 8,6 C 40,2 km/h (6 Bft) 100,00 %
28.06.2022 06:00 15,1 C 96 % 1016,9 hPa 0,0 l/m 22,5 km/h (4 Bft) W-SW 247 0 min 0,0 UV-I 56 W/m 14,5 C 9,3 C 37,0 km/h (5 Bft) 100,00 %
28.06.2022 05:55 15,1 C 96 % 1017,0 hPa 0,0 l/m 25,7 km/h (4 Bft) W-SW 247 0 min 0,0 UV-I 44 W/m 14,5 C 8,6 C 43,5 km/h (6 Bft) 100,00 %
28.06.2022 05:50 15,0 C 96 % 1017,1 hPa 0,0 l/m 24,1 km/h (4 Bft) W-SW 247 0 min 0,0 UV-I 40 W/m 14,4 C 8,8 C 38,6 km/h (5 Bft) 100,00 %
28.06.2022 05:45 14,9 C 96 % 1017,0 hPa 0,0 l/m 22,5 km/h (4 Bft) W-SW 247 0 min 0,0 UV-I 39 W/m 14,3 C 9,0 C 38,6 km/h (5 Bft) 100,00 %
28.06.2022 05:40 15,0 C 95 % 1017,0 hPa 0,0 l/m 22,5 km/h (4 Bft) W-SW 247 0 min 0,0 UV-I 33 W/m 14,2 C 9,1 C 32,2 km/h (5 Bft) 100,00 %
28.06.2022 05:35 15,0 C 95 % 1016,9 hPa 0,0 l/m 27,4 km/h (4 Bft) W 270 0 min 0,0 UV-I 32 W/m 14,2 C 8,1 C 43,5 km/h (6 Bft) 99,12 %
28.06.2022 05:30 15,1 C 95 % 1016,8 hPa 0,0 l/m 24,1 km/h (4 Bft) W-SW 247 0 min 0,0 UV-I 25 W/m 14,3 C 8,9 C 38,6 km/h (5 Bft) 98,25 %
28.06.2022 05:25 15,1 C 95 % 1016,8 hPa 0,0 l/m 30,6 km/h (5 Bft) W-SW 247 0 min 0,0 UV-I 16 W/m 14,3 C 7,7 C 45,1 km/h (6 Bft) 98,25 %
28.06.2022 05:20 15,1 C 95 % 1016,9 hPa 0,0 l/m 30,6 km/h (5 Bft) W 270 0 min 0,0 UV-I 12 W/m 14,3 C 7,7 C 48,3 km/h (6 Bft) 92,98 %
28.06.2022 05:15 15,1 C 95 % 1016,9 hPa 0,0 l/m 25,7 km/h (4 Bft) W 270 0 min 0,0 UV-I 7 W/m 14,3 C 8,6 C 35,4 km/h (5 Bft) 98,25 %
28.06.2022 05:10 15,3 C 95 % 1017,0 hPa 0,0 l/m 29,0 km/h (5 Bft) W 270 0 min 0,0 UV-I 5 W/m 14,5 C 8,3 C 43,5 km/h (6 Bft) 98,25 %
28.06.2022 05:05 15,3 C 94 % 1016,9 hPa 0,0 l/m 24,1 km/h (4 Bft) W 270 0 min 0,0 UV-I 0 W/m 14,3 C 9,2 C 32,2 km/h (5 Bft) 100,00 %
28.06.2022 05:00 15,3 C 94 % 1016,5 hPa 0,0 l/m 19,3 km/h (3 Bft) W 270 0 min 0,0 UV-I 0 W/m 14,3 C 10,3 C 25,7 km/h (4 Bft) 100,00 %
28.06.2022 04:55 15,5 C 93 % 1016,5 hPa 0,0 l/m 17,7 km/h (3 Bft) W 270 0 min 0,0 UV-I 0 W/m 14,4 C 11,0 C 25,7 km/h (4 Bft) 100,00 %
28.06.2022 04:50 15,3 C 94 % 1016,1 hPa 0,0 l/m 20,9 km/h (4 Bft) W-NW 292 0 min 0,0 UV-I 0 W/m 14,3 C 9,9 C 32,2 km/h (5 Bft) 100,00 %
28.06.2022 04:45 15,2 C 95 % 1016,4 hPa 0,0 l/m 17,7 km/h (3 Bft) W 270 0 min 0,0 UV-I 0 W/m 14,4 C 10,6 C 25,7 km/h (4 Bft) 100,00 %
28.06.2022 04:40 15,3 C 95 % 1016,7 hPa 0,0 l/m 20,9 km/h (4 Bft) W 270 0 min 0,0 UV-I 0 W/m 14,5 C 9,9 C 29,0 km/h (5 Bft) 100,00 %
28.06.2022 04:35 15,4 C 94 % 1016,7 hPa 0,0 l/m 22,5 km/h (4 Bft) W-NW 292 0 min 0,0 UV-I 0 W/m 14,4 C 9,7 C 32,2 km/h (5 Bft) 98,25 %
28.06.2022 04:30 15,6 C 93 % 1016,6 hPa 0,0 l/m 19,3 km/h (3 Bft) W-NW 292 0 min 0,0 UV-I 0 W/m 14,5 C 10,7 C 30,6 km/h (5 Bft) 97,37 %
28.06.2022 04:25 16,2 C 89 % 1016,2 hPa 0,0 l/m 20,9 km/h (4 Bft) W-NW 292 0 min 0,0 UV-I 0 W/m 14,4 C 11,1 C 32,2 km/h (5 Bft) 97,37 %
28.06.2022 04:20 16,8 C 83 % 1016,0 hPa 0,0 l/m 8,0 km/h (2 Bft) S-SO 157 0 min 0,0 UV-I 0 W/m 13,9 C 16,0 C 14,5 km/h (3 Bft) 100,00 %
28.06.2022 04:15 16,2 C 89 % 1016,1 hPa 0,0 l/m 17,7 km/h (3 Bft) S-SW 202 0 min 0,0 UV-I 0 W/m 14,4 C 11,9 C 33,8 km/h (5 Bft) 86,84 %
28.06.2022 04:10 15,7 C 94 % 1016,9 hPa 0,0 l/m 16,1 km/h (3 Bft) SW 225 0 min 0,0 UV-I 0 W/m 14,7 C 11,7 C 32,2 km/h (5 Bft) 97,37 %
28.06.2022 04:05 15,7 C 95 % 1016,5 hPa 0,2 l/m 12,9 km/h (3 Bft) S 180 0 min 0,0 UV-I 0 W/m 14,9 C 12,7 C 35,4 km/h (5 Bft) 92,98 %
28.06.2022 04:00 15,6 C 95 % 1017,1 hPa 0,0 l/m 17,7 km/h (3 Bft) S-SW 202 0 min 0,0 UV-I 0 W/m 14,8 C 11,1 C 38,6 km/h (5 Bft) 93,86 %
28.06.2022 03:55 15,5 C 96 % 1017,7 hPa 0,0 l/m 14,5 km/h (3 Bft) SW 225 0 min 0,0 UV-I 0 W/m 14,9 C 12,0 C 29,0 km/h (5 Bft) 100,00 %
28.06.2022 03:50 15,6 C 95 % 1018,0 hPa 0,0 l/m 12,9 km/h (3 Bft) SW 225 0 min 0,0 UV-I 0 W/m 14,8 C 12,6 C 29,0 km/h (5 Bft) 97,37 %
28.06.2022 03:45 15,6 C 95 % 1018,1 hPa 0,4 l/m 22,5 km/h (4 Bft) SW 225 0 min 0,0 UV-I 0 W/m 14,8 C 9,9 C 43,5 km/h (6 Bft) 95,61 %
28.06.2022 03:40 15,6 C 95 % 1017,8 hPa 0,2 l/m 29,0 km/h (5 Bft) W-SW 247 0 min 0,0 UV-I 0 W/m 14,8 C 8,7 C 51,5 km/h (7 Bft) 97,37 %
28.06.2022 03:35 15,6 C 95 % 1017,9 hPa 0,0 l/m 27,4 km/h (4 Bft) W-SW 247 0 min 0,0 UV-I 0 W/m 14,8 C 9,0 C 51,5 km/h (7 Bft) 95,61 %
28.06.2022 03:30 15,6 C 95 % 1018,1 hPa 0,0 l/m 29,0 km/h (5 Bft) W-SW 247 0 min 0,0 UV-I 0 W/m 14,8 C 8,7 C 51,5 km/h (7 Bft) 98,25 %
28.06.2022 03:25 15,6 C 95 % 1018,1 hPa 0,0 l/m 30,6 km/h (5 Bft) SW 225 0 min 0,0 UV-I 0 W/m 14,8 C 8,4 C 57,9 km/h (7 Bft) 94,74 %
28.06.2022 03:20 15,6 C 95 % 1018,0 hPa 0,0 l/m 30,6 km/h (5 Bft) SW 225 0 min 0,0 UV-I 0 W/m 14,8 C 8,4 C 48,3 km/h (6 Bft) 98,25 %
28.06.2022 03:15 15,6 C 95 % 1018,1 hPa 0,2 l/m 32,2 km/h (5 Bft) W-SW 247 0 min 0,0 UV-I 0 W/m 14,8 C 8,2 C 61,2 km/h (7 Bft) 85,96 %
28.06.2022 03:10 15,7 C 95 % 1017,8 hPa 0,0 l/m 32,2 km/h (5 Bft) W-SW 247 0 min 0,0 UV-I 0 W/m 14,9 C 8,3 C 57,9 km/h (7 Bft) 89,47 %
28.06.2022 03:05 15,7 C 95 % 1017,8 hPa 0,0 l/m 25,7 km/h (4 Bft) SW 225 0 min 0,0 UV-I 0 W/m 14,9 C 9,4 C 57,9 km/h (7 Bft) 91,23 %
28.06.2022 03:00 15,8 C 95 % 1017,6 hPa 0,0 l/m 27,4 km/h (4 Bft) W-SW 247 0 min 0,0 UV-I 0 W/m 15,0 C 9,2 C 49,9 km/h (6 Bft) 81,58 %
28.06.2022 02:55 15,9 C 95 % 1017,6 hPa 0,0 l/m 29,0 km/h (5 Bft) W-SW 247 0 min 0,0 UV-I 0 W/m 15,1 C 9,1 C 53,1 km/h (7 Bft) 82,46 %
28.06.2022 02:50 15,9 C 95 % 1017,4 hPa 0,0 l/m 27,4 km/h (4 Bft) W-SW 247 0 min 0,0 UV-I 0 W/m 15,1 C 9,4 C 48,3 km/h (6 Bft) 90,35 %
28.06.2022 02:45 15,9 C 94 % 1017,5 hPa 0,0 l/m 32,2 km/h (5 Bft) W-SW 247 0 min 0,0 UV-I 0 W/m 14,9 C 8,6 C 57,9 km/h (7 Bft) 86,84 %
28.06.2022 02:40 16,1 C 94 % 1017,4 hPa 0,0 l/m 25,7 km/h (4 Bft) W-SW 247 0 min 0,0 UV-I 0 W/m 15,1 C 10,0 C 59,5 km/h (7 Bft) 84,21 %
28.06.2022 02:35 16,3 C 93 % 1017,2 hPa 0,2 l/m 29,0 km/h (5 Bft) W 270 0 min 0,0 UV-I 0 W/m 15,2 C 9,7 C 54,7 km/h (7 Bft) 91,23 %
28.06.2022 02:30 16,7 C 92 % 1016,8 hPa 0,2 l/m 37,0 km/h (5 Bft) W 270 0 min 0,0 UV-I 0 W/m 15,4 C 9,2 C 54,7 km/h (7 Bft) 87,72 %
28.06.2022 02:25 17,4 C 91 % 1016,7 hPa 0,0 l/m 30,6 km/h (5 Bft) W-SW 247 0 min 0,0 UV-I 0 W/m 15,9 C 11,0 C 49,9 km/h (6 Bft) 84,21 %
28.06.2022 02:20 18,2 C 88 % 1016,7 hPa 0,0 l/m 25,7 km/h (4 Bft) W-SW 247 0 min 0,0 UV-I 0 W/m 16,2 C 12,8 C 48,3 km/h (6 Bft) 100,00 %
28.06.2022 02:15 18,3 C 87 % 1016,2 hPa 0,0 l/m 25,7 km/h (4 Bft) SW 225 0 min 0,0 UV-I 0 W/m 16,1 C 13,0 C 45,1 km/h (6 Bft) 100,00 %
28.06.2022 02:10 18,4 C 86 % 1015,9 hPa 0,0 l/m 29,0 km/h (5 Bft) W-SW 247 0 min 0,0 UV-I 0 W/m 16,0 C 12,6 C 57,9 km/h (7 Bft) 100,00 %
28.06.2022 02:05 18,6 C 85 % 1015,6 hPa 0,0 l/m 25,7 km/h (4 Bft) W-SW 247 0 min 0,0 UV-I 0 W/m 16,0 C 13,4 C 48,3 km/h (6 Bft) 100,00 %
28.06.2022 02:00 18,9 C 84 % 1015,7 hPa 0,0 l/m 25,7 km/h (4 Bft) W-SW 247 0 min 0,0 UV-I 0 W/m 16,1 C 13,8 C 53,1 km/h (7 Bft) 92,11 %
28.06.2022 01:55 19,2 C 83 % 1015,5 hPa 0,0 l/m 33,8 km/h (5 Bft) W-SW 247 0 min 0,0 UV-I 0 W/m 16,2 C 13,1 C 53,1 km/h (7 Bft) 83,33 %
28.06.2022 01:50 19,2 C 83 % 1015,4 hPa 0,0 l/m 32,2 km/h (5 Bft) W-SW 247 0 min 0,0 UV-I 0 W/m 16,2 C 13,3 C 51,5 km/h (7 Bft) 86,84 %
28.06.2022 01:45 19,2 C 83 % 1015,2 hPa 0,0 l/m 35,4 km/h (5 Bft) SW 225 0 min 0,0 UV-I 0 W/m 16,2 C 13,0 C 57,9 km/h (7 Bft) 85,09 %
28.06.2022 01:40 19,2 C 83 % 1015,1 hPa 0,0 l/m 37,0 km/h (5 Bft) W-SW 247 0 min 0,0 UV-I 0 W/m 16,2 C 12,8 C 62,8 km/h (8 Bft) 96,49 %
28.06.2022 01:35 19,3 C 83 % 1014,9 hPa 0,0 l/m 35,4 km/h (5 Bft) W-SW 247 0 min 0,0 UV-I 0 W/m 16,3 C 13,1 C 64,4 km/h (8 Bft) 91,23 %
28.06.2022 01:30 19,6 C 82 % 1015,2 hPa 0,0 l/m 24,1 km/h (4 Bft) SW 225 0 min 0,0 UV-I 0 W/m 16,4 C 15,0 C 46,7 km/h (6 Bft) 87,72 %
28.06.2022 01:25 19,9 C 81 % 1015,0 hPa 0,0 l/m 22,5 km/h (4 Bft) W-SW 247 0 min 0,0 UV-I 0 W/m 16,5 C 15,6 C 48,3 km/h (6 Bft) 84,21 %
28.06.2022 01:20 20,2 C 81 % 1014,8 hPa 0,0 l/m 17,7 km/h (3 Bft) W-SW 247 0 min 0,0 UV-I 0 W/m 16,8 C 16,9 C 37,0 km/h (5 Bft) 85,96 %
28.06.2022 01:15 20,3 C 80 % 1014,4 hPa 0,0 l/m 19,3 km/h (3 Bft) W 270 0 min 0,0 UV-I 0 W/m 16,7 C 16,7 C 33,8 km/h (5 Bft) 71,93 %
28.06.2022 01:10 20,4 C 80 % 1014,5 hPa 0,0 l/m 24,1 km/h (4 Bft) W-SW 247 0 min 0,0 UV-I 0 W/m 16,8 C 16,1 C 40,2 km/h (6 Bft) 69,30 %
28.06.2022 01:05 20,6 C 79 % 1014,6 hPa 0,0 l/m 29,0 km/h (5 Bft) W-SW 247 0 min 0,0 UV-I 0 W/m 16,8 C 15,7 C 45,1 km/h (6 Bft) 77,19 %
28.06.2022 01:00 20,8 C 78 % 1014,7 hPa 0,0 l/m 24,1 km/h (4 Bft) W-SW 247 0 min 0,0 UV-I 0 W/m 16,8 C 16,6 C 45,1 km/h (6 Bft) 77,19 %
28.06.2022 00:55 21,0 C 76 % 1014,8 hPa 0,0 l/m 24,1 km/h (4 Bft) W-SW 247 0 min 0,0 UV-I 0 W/m 16,6 C 16,9 C 41,8 km/h (6 Bft) 76,32 %
28.06.2022 00:50 21,2 C 75 % 1014,7 hPa 0,0 l/m 25,7 km/h (4 Bft) W-SW 247 0 min 0,0 UV-I 0 W/m 16,6 C 16,9 C 48,3 km/h (6 Bft) 82,46 %
28.06.2022 00:45 21,4 C 73 % 1014,4 hPa 0,0 l/m 24,1 km/h (4 Bft) W 270 0 min 0,0 UV-I 0 W/m 16,4 C 17,4 C 43,5 km/h (6 Bft) 74,56 %
28.06.2022 00:40 21,9 C 70 % 1014,2 hPa 0,0 l/m 29,0 km/h (5 Bft) W 270 0 min 0,0 UV-I 0 W/m 16,2 C 17,5 C 43,5 km/h (6 Bft) 79,82 %
28.06.2022 00:35 22,3 C 66 % 1014,0 hPa 0,0 l/m 27,4 km/h (4 Bft) W-NW 292 0 min 0,0 UV-I 0 W/m 15,6 C 18,2 C 48,3 km/h (6 Bft) 71,05 %
28.06.2022 00:30 23,1 C 61 % 1014,0 hPa 0,0 l/m 25,7 km/h (4 Bft) W 270 0 min 0,0 UV-I 0 W/m 15,2 C 19,5 C 46,7 km/h (6 Bft) 68,42 %
28.06.2022 00:25 23,2 C 55 % 1013,8 hPa 0,0 l/m 17,7 km/h (3 Bft) W-SW 247 0 min 0,0 UV-I 0 W/m 13,6 C 20,7 C 30,6 km/h (5 Bft) 69,30 %
28.06.2022 00:20 23,7 C 50 % 1013,6 hPa 0,0 l/m 11,3 km/h (2 Bft) S-SW 202 0 min 0,0 UV-I 0 W/m 12,6 C 22,4 C 29,0 km/h (5 Bft) 70,18 %
28.06.2022 00:15 23,6 C 50 % 1013,4 hPa 0,0 l/m 11,3 km/h (2 Bft) S-SW 202 0 min 0,0 UV-I 0 W/m 12,6 C 22,3 C 25,7 km/h (4 Bft) 63,16 %
28.06.2022 00:10 24,1 C 51 % 1013,4 hPa 0,0 l/m 12,9 km/h (3 Bft) S 180 0 min 0,0 UV-I 0 W/m 13,3 C 22,6 C 27,4 km/h (4 Bft) 81,58 %
28.06.2022 00:05 24,1 C 44 % 1013,4 hPa 0,0 l/m 16,1 km/h (3 Bft) S-SW 202 0 min 0,0 UV-I 0 W/m 11,1 C 22,0 C 25,7 km/h (4 Bft) 77,19 %
28.06.2022 00:00 22,8 C 47 % 1013,6 hPa 0,0 l/m 14,5 km/h (3 Bft) S 180 0 min 0,0 UV-I 0 W/m 10,9 C 20,7 C 32,2 km/h (5 Bft) 75,44 %
_ Min-Zeit 06:40 00:05 00:05 - 04:20 - - - - - 00:00 05:20 04:20 00:15
Minimum _ 14,8 C 44 % 1013,4 hPa - 8,0 km/h (2 Bft) - - - - - 10,9 C 7,7 C 14,5 km/h (3 Bft) 63,16 %
_ Max-Zeit 00:10 03:55 09:50 03:45 01:40 - - 07:00 10:10 10:10 01:20 00:10 01:35 02:05
Maximum _ 24,3 C 96 % 1020,0 hPa 0,4 l/m 37,0 km/h
W-SW (5 Bft)
- - 5 min 4,9 UV-I 830 W/m 16,8 C 22,6 C 64,4 km/h
W-SW (8 Bft)
100,00 %
Durchschnitt _ 16,9 C 88 % 1017,2 hPa #1,4 l/m 22,2 km/h (4 Bft) W-SW - #3:15 h 2,4 UV-I 333 W/m 14,8 C 11,8 C 39,0 km/h (6 Bft) 93,98 %